Погода в Ханьчжуне

Китай     33°04′38″N   107°00′31″E
темп.,
°C
ветер,
м/с
пор.,
м/с
влажн.,
%
обл.,
%
осадки,
мм/ч
давл.,
гПа
погр.,
м
16 мая, вс
вс1623:00+15зюз2268100 0.0 101340
02:00+14з227285 0.0 101320
05:00+13зюз1173100 0.0 101416
08:00+15с1271100 0.0 1015254
11:00+19зюз1154100 0.0 10151170
14:00+22ю3245100 0.0 10121201
17:00+22ююв22410 0.0 1010864
20:00+16в226517 0.0 101213
17 мая, пн
пн1723:00+14св117296 0.0 101513
02:00+13с1180100 0.0 101611
05:00+13зсз1180100 0.0 101611
08:00+14ююв1178100 0.0 1017181
11:00+19св2164100 0.0 1016700
14:00+23всв11495 0.0 10121119
17:00+24всв2238100 0.0 10091014
20:00+18вюв1160100 0.0 101111
18 мая, вт
вт1823:00+16юз1166100 0.0 101311
02:00+16ююз1169100 0.0 101311
05:00+15св1172100 0.0 101213
08:00+17с227081 0.0 1013239
11:00+22св115670 0.0 1012704
14:00+25св214390 0.0 10081055
17:00+26вюв1244100 0.0 10051033
20:00+20юв115899 0.0 100611
19 мая, ср
ср1923:00+19ю1166100 0.0 100925
02:00+18юз1172100 0.0 100912
05:00+17сз0075100 0.0 100811
08:00+19с2273100 0.0 1010249
11:00+24сз125969 0.1 1008925
14:00+27ююз1145100 0.1 10051298
17:00+27з1144100 0.0 1003876
20:00+21ююв226699 0.0 100513
20 мая, чт
чт2023:00+18ююз227329 0.0 100821
02:00+17зюз227910 0.0 100813
05:00+17зюз117985 0.0 100812
08:00+19с117594 0.0 1009279
11:00+24сз11613 0.0 1007758
14:00+28с1250100 0.0 10041136
17:00+28зсз1248100 0.0 10011065
20:00+23юз3366100 0.0 100451